When you browse on this site, cookies collect data to enhance your experience and personalize the content and advertising you see.
Visit our Privacy Policy to learn more. By continuing to use the site, you agree to this use of cookies and data.
  • In France
  • List of Countries
  • For 7 days
  • Water Temperature
  • Satellite Maps
  • Weather Map
  • Weather Widgets
  • user-avatar
    Login

    Hourly Weather Kadugli

    Today, 16 June, Sunday

    Time Temperature Precipitation Wind Pressure Humidity
    00:00 +29°C° 0 mm 2 mps 711 mmHg 65%
    01:00 +29°C° 0 mm 2 mps 710 mmHg 68%
    02:00 +28°C° 0 mm 2 mps 710 mmHg 71%
    03:00 +28°C° 0 mm 2 mps 710 mmHg 72%
    04:00 +27°C° 0 mm 2 mps 710 mmHg 73%
    05:00 +27°C° 0 mm 2 mps 710 mmHg 74%
    06:00 +28°C° 0 mm 2 mps 711 mmHg 72%
    07:00 +28°C° 0 mm 3 mps 711 mmHg 70%
    08:00 +29°C° 0 mm 3 mps 712 mmHg 68%
    09:00 +30°C° 0 mm 3 mps 712 mmHg 63%
    10:00 +33°C° 0 mm 3 mps 712 mmHg 58%
    11:00 +34°C° 0 mm 4 mps 712 mmHg 52%
    12:00 +34°C° 0.2 mm 3 mps 712 mmHg 52%
    13:00 +34°C° 0.2 mm 3 mps 711 mmHg 52%
    14:00 +34°C° 0.2 mm 3 mps 711 mmHg 52%
    15:00 +34°C° 0.1 mm 2 mps 710 mmHg 50%
    16:00 +34°C° 0.1 mm 2 mps 710 mmHg 48%
    17:00 +35°C° 0.1 mm 2 mps 710 mmHg 46%
    18:00 +34°C° 0 mm 2 mps 710 mmHg 50%
    19:00 +32°C° 0 mm 2 mps 710 mmHg 54%
    20:00 +31°C° 0 mm 3 mps 711 mmHg 58%
    21:00 +30°C° 0 mm 3 mps 711 mmHg 61%
    22:00 +30°C° 0 mm 2 mps 711 mmHg 63%
    23:00 +29°C° 0 mm 2 mps 711 mmHg 65%

    Tomorrow, 17 June, Monday

    Time Temperature Precipitation Wind Pressure Humidity
    00:00 +29°C° 0 mm 3 mps 711 mmHg 67%
    01:00 +28°C° 0 mm 3 mps 711 mmHg 69%
    02:00 +28°C° 0 mm 3 mps 710 mmHg 71%
    03:00 +28°C° 0 mm 3 mps 710 mmHg 73%
    04:00 +27°C° 0 mm 3 mps 711 mmHg 75%
    05:00 +27°C° 0 mm 3 mps 711 mmHg 77%
    06:00 +27°C° 0 mm 3 mps 711 mmHg 74%
    07:00 +28°C° 0 mm 3 mps 712 mmHg 71%
    08:00 +29°C° 0 mm 3 mps 713 mmHg 68%
    09:00 +30°C° 0 mm 4 mps 713 mmHg 62%
    10:00 +32°C° 0 mm 4 mps 713 mmHg 56%
    11:00 +34°C° 0 mm 4 mps 713 mmHg 50%
    12:00 +35°C° 0 mm 4 mps 713 mmHg 47%
    13:00 +35°C° 0 mm 4 mps 712 mmHg 45%
    14:00 +36°C° 0 mm 4 mps 712 mmHg 42%
    15:00 +35°C° 0 mm 3 mps 712 mmHg 43%
    16:00 +35°C° 0 mm 3 mps 711 mmHg 44%
    17:00 +35°C° 0 mm 3 mps 711 mmHg 45%
    18:00 +34°C° 0.1 mm 3 mps 711 mmHg 49%
    19:00 +32°C° 0.1 mm 2 mps 712 mmHg 52%
    20:00 +31°C° 0.1 mm 1 mps 712 mmHg 55%
    21:00 +31°C° 0.2 mm 1 mps 712 mmHg 58%
    22:00 +30°C° 0.2 mm 1 mps 712 mmHg 61%
    23:00 +29°C° 0.2 mm 1 mps 713 mmHg 64%

    Day after tomorrow, 18 June, Tuesday

    Time Temperature Precipitation Wind Pressure Humidity
    00:00 +29°C° 0 mm 1 mps 712 mmHg 65%
    01:00 +29°C° 0 mm 1 mps 712 mmHg 67%
    02:00 +28°C° 0 mm 2 mps 712 mmHg 69%
    03:00 +28°C° 0.2 mm 2 mps 712 mmHg 70%
    04:00 +27°C° 0.2 mm 2 mps 712 mmHg 71%
    05:00 +27°C° 0.2 mm 3 mps 712 mmHg 72%
    06:00 +28°C° 0 mm 3 mps 713 mmHg 70%
    07:00 +28°C° 0 mm 4 mps 713 mmHg 68%
    08:00 +29°C° 0 mm 4 mps 714 mmHg 66%
    09:00 +30°C° 0 mm 5 mps 714 mmHg 60%
    10:00 +33°C° 0 mm 5 mps 714 mmHg 54%
    11:00 +35°C° 0 mm 5 mps 714 mmHg 47%
    12:00 +36°C° 0 mm 5 mps 714 mmHg 43%
    13:00 +37°C° 0 mm 4 mps 713 mmHg 40%
    14:00 +37°C° 0 mm 4 mps 713 mmHg 36%
    15:00 +37°C° 0 mm 4 mps 712 mmHg 36%
    16:00 +37°C° 0 mm 3 mps 712 mmHg 37%
    17:00 +37°C° 0 mm 3 mps 711 mmHg 37%
    18:00 +35°C° 0.3 mm 3 mps 711 mmHg 44%
    19:00 +33°C° 0.3 mm 3 mps 712 mmHg 51%
    20:00 +31°C° 0.3 mm 2 mps 712 mmHg 58%
    21:00 +30°C° 0.5 mm 2 mps 712 mmHg 60%
    22:00 +30°C° 0.5 mm 2 mps 712 mmHg 62%
    23:00 +29°C° 0.5 mm 2 mps 712 mmHg 64%

    19 June, Wednesday

    Time Temperature Precipitation Wind Pressure Humidity
    00:00 +29°C° 0 mm 2 mps 712 mmHg 65%
    01:00 +29°C° 0 mm 1 mps 712 mmHg 67%
    02:00 +29°C° 0 mm 1 mps 711 mmHg 68%
    03:00 +28°C° 0 mm 1 mps 711 mmHg 69%
    04:00 +28°C° 0 mm 1 mps 711 mmHg 69%
    05:00 +28°C° 0 mm 2 mps 711 mmHg 70%
    06:00 +28°C° 0 mm 2 mps 712 mmHg 68%
    07:00 +29°C° 0 mm 3 mps 712 mmHg 65%
    08:00 +30°C° 0 mm 4 mps 713 mmHg 62%
    09:00 +32°C° 0 mm 4 mps 713 mmHg 57%
    10:00 +33°C° 0 mm 4 mps 713 mmHg 52%
    11:00 +35°C° 0 mm 4 mps 713 mmHg 47%
    12:00 +36°C° 0 mm 4 mps 712 mmHg 43%
    13:00 +37°C° 0 mm 3 mps 712 mmHg 39%
    14:00 +38°C° 0 mm 2 mps 711 mmHg 35%
    15:00 +38°C° 0 mm 2 mps 711 mmHg 34%
    16:00 +37°C° 0 mm 1 mps 711 mmHg 34%
    17:00 +37°C° 0 mm 1 mps 710 mmHg 33%
    18:00 +36°C° 0.2 mm 2 mps 710 mmHg 40%
    19:00 +34°C° 0.2 mm 2 mps 711 mmHg 47%
    20:00 +31°C° 0.2 mm 3 mps 711 mmHg 54%
    21:00 +31°C° 0.2 mm 2 mps 711 mmHg 55%
    22:00 +31°C° 0.2 mm 2 mps 711 mmHg 56%
    23:00 +30°C° 0.2 mm 2 mps 711 mmHg 58%

    20 June, Thursday

    Time Temperature Precipitation Wind Pressure Humidity
    00:00 +30°C° 0 mm 2 mps 711 mmHg 60%
    01:00 +30°C° 0 mm 2 mps 711 mmHg 62%
    02:00 +29°C° 0 mm 3 mps 710 mmHg 64%
    03:00 +29°C° 0 mm 3 mps 710 mmHg 65%
    04:00 +28°C° 0 mm 2 mps 710 mmHg 67%
    05:00 +28°C° 0 mm 2 mps 710 mmHg 68%
    06:00 +29°C° 0 mm 3 mps 711 mmHg 65%
    07:00 +30°C° 0 mm 3 mps 711 mmHg 62%
    08:00 +30°C° 0 mm 3 mps 712 mmHg 59%
    09:00 +33°C° 0 mm 4 mps 712 mmHg 54%
    10:00 +34°C° 0 mm 4 mps 712 mmHg 49%
    11:00 +36°C° 0 mm 4 mps 712 mmHg 43%
    12:00 +37°C° 0 mm 4 mps 712 mmHg 41%
    13:00 +37°C° 0 mm 3 mps 711 mmHg 38%
    14:00 +38°C° 0 mm 3 mps 711 mmHg 36%
    15:00 +38°C° 0 mm 3 mps 710 mmHg 38%
    16:00 +37°C° 0 mm 3 mps 710 mmHg 39%
    17:00 +37°C° 0 mm 3 mps 710 mmHg 41%
    18:00 +35°C° 0.2 mm 3 mps 710 mmHg 44%
    19:00 +34°C° 0.2 mm 3 mps 711 mmHg 47%
    20:00 +33°C° 0.2 mm 3 mps 711 mmHg 50%
    21:00 +30°C° 4.4 mm 4 mps 711 mmHg 59%
    22:00 +28°C° 4.4 mm 5 mps 711 mmHg 69%
    23:00 +26°C° 4.4 mm 7 mps 711 mmHg 78%

    21 June, Friday

    Time Temperature Precipitation Wind Pressure Humidity
    00:00 +26°C° 0.1 mm 5 mps 710 mmHg 74%
    01:00 +27°C° 0.1 mm 3 mps 710 mmHg 69%
    02:00 +27°C° 0.1 mm 2 mps 710 mmHg 65%
    03:00 +27°C° 0 mm 2 mps 710 mmHg 67%
    04:00 +27°C° 0 mm 2 mps 710 mmHg 70%
    05:00 +26°C° 0 mm 2 mps 710 mmHg 72%
    06:00 +27°C° 0 mm 2 mps 710 mmHg 70%
    07:00 +28°C° 0 mm 3 mps 711 mmHg 68%
    08:00 +29°C° 0 mm 3 mps 711 mmHg 66%
    09:00 +31°C° 0 mm 3 mps 711 mmHg 60%
    10:00 +33°C° 0 mm 3 mps 712 mmHg 54%
    11:00 +35°C° 0 mm 3 mps 712 mmHg 48%
    12:00 +36°C° 0 mm 3 mps 711 mmHg 45%
    13:00 +37°C° 0 mm 3 mps 711 mmHg 42%
    14:00 +38°C° 0 mm 3 mps 710 mmHg 38%
    15:00 +37°C° 0 mm 3 mps 710 mmHg 38%
    16:00 +37°C° 0 mm 2 mps 709 mmHg 37%
    17:00 +37°C° 0 mm 2 mps 709 mmHg 36%
    18:00 +35°C° 0 mm 1 mps 709 mmHg 39%
    19:00 +35°C° 0 mm 1 mps 709 mmHg 42%
    20:00 +34°C° 0 mm 1 mps 709 mmHg 45%
    21:00 +33°C° 0.2 mm 1 mps 710 mmHg 48%
    22:00 +32°C° 0.2 mm 2 mps 710 mmHg 51%
    23:00 +31°C° 0.2 mm 3 mps 710 mmHg 54%
    Show more